Regional Weather Roundup
Issued by NWS Northern Indiana

Home | Current Version | Previous Version | Text Only | Print | Product List | Glossary On
Versions: 1 2 3 4 5 6 7 8 9 10 11 12 13 14 15 16 17 18 19 20 21 22 23 24 25 26 27 28 29 30 31 32 33 34 35 36 37 38 39 40 41 42 43 44 45 46 47 48 49 50
000
ASUS43 KIWX 012210
RWRIWX

KIWX WEATHER ROUNDUP
NATIONAL WEATHER SERVICE NORTHERN INDIANA
600 PM EDT SAT OCT 01 2016

NOTE: "FAIR" INDICATES FEW OR NO CLOUDS BELOW 12,000 FEET WITH NO
SIGNIFICANT WEATHER AND/OR OBSTRUCTIONS TO VISIBILITY.

* THESE STATIONS ARE NOT UNDER NWS QUALITY CONTROL. THEY ALSO MAY NOT
  REPORT WEATHER SUCH AS PRECIPITATION OR FOG.

INZ001>027-012300-
NORTHERN INDIANA

CITY           SKY/WX    TMP DP  RH WIND       PRES   REMARKS
GARY*          PTSUNNY   64  59  82 NE6       29.97S
VALPARAISO     CLOUDY    60  56  86 SE3       29.97S
MICHIGAN CITY* MOSUNNY   63  61  94 S3        29.97F
LAPORTE*       MOSUNNY   62  62 100 S3        29.97F
KNOX*          CLOUDY    59  45  58 S3        29.97S
SOUTH BEND     TSTM      59  51  75 SE7       29.99R
ELKHART*       CLOUDY    59  52  77 SE6       29.98F
GOSHEN         CLOUDY    58  54  86 SE6       29.98F
MONTICELLO*    CLOUDY    61  55  81 SW3       29.97S
LOGANSPORT*    RAIN      61  55  82 SW6       29.99R
ROCHESTER*     HVY RAIN N/A N/A N/A CALM      29.99S
WARSAW*        CLOUDY    59  50  72 E5        29.99S
ANGOLA*          N/A     61  52  72 S3        29.99S
FORT WAYNE     PTSUNNY   59  53  80 NE3       30.01S
HUNTINGTON*    CLOUDY    59  55  89 CALM      30.00R
PERU/GRISSOM   DRIZZLE   61  57  88 S5        29.98R
MARION*        CLOUDY    59  56  88 CALM      30.00S

$$
INZ028>050-012300-
CENTRAL INDIANA

CITY           SKY/WX    TMP DP  RH WIND       PRES   REMARKS
LAFAYETTE      CLOUDY    62  59  90 CALM      29.98S
KOKOMO*        CLOUDY    61  57  88 S5        30.00S
MUNCIE*        CLOUDY    63  56  78 N3        29.99F
INDIANAPOLIS   LGT RAIN  61  56  83 SW9       29.99S

$$
MIZ043>046-050>051-056>058-064>065-071>073-077>080-012300-
SOUTHWEST LOWER MICHIGAN

CITY           SKY/WX    TMP DP  RH WIND       PRES   REMARKS
BATTLE CREEK   CLOUDY    63  55  75 E6        30.00S
BENTON HARBOR  CLOUDY    63  58  83 CALM      29.96F
COLDWATER*     CLOUDY    60  55  81 SE5       30.00R
HILLSDALE*     PTSUNNY   61  54  77 CALM      29.99F
HOLLAND        PTSUNNY   67  57  70 E3        29.98S
GRAND RAPIDS   TSTM      57  53  86 SE7       30.01R VSB 1
KALAMAZOO      MOSUNNY   66  48  52 SE6       29.99S
STURGIS*       PTSUNNY   61  53  74 CALM      29.99S
THREE RIVERS*  LGT RAIN  62  53  70 S6        29.99F

$$
OHZ001>008-015>018-024>025-012300-
NORTHWEST OHIO

CITY           SKY/WX    TMP DP  RH WIND       PRES   REMARKS
WAUSEON*       FAIR      64  55  72 CALM      30.00S
DEFIANCE       PTSUNNY   63  52  67 S7        30.01R
FINDLAY        CLOUDY    66  50  56 SW5       30.00R
TOLEDO EXPRESS MOSUNNY   64  55  72 W6        30.00R
TOLEDO METCALF CLOUDY    67  54  63 S8        30.00S
LIMA           PTSUNNY   64  51  62 W8        30.01R

$$
AND FOR LAKE MICHIGAN COASTAL AND OPEN LAKE BUOY OBSERVATIONS

STATION/POSITION TEMP    WIND        PRES    VSBY  WAVE
                 AIR SEA DIR/SP/G                  HT/PER
                 (F)     (DEG/KT/KT) (MB)    (MI)  (FT/S)
CALUMET HARBOR    62     330/  3/  5 1014.5R
MICHIGAN CITY     61      10/  3/  4   N/A
BURNS HARBOR      64      40/  6/  8 1014.9F
SAINT JOSEPH      61      20/  7/  9 1015.6
SOUTH LAKE BUOY   64 67   50/ 10/ 12 1014.5F         2/ 6
4 MI NW BRIDGMAN  54 52   20/  4/  4 1015.2          2/ 5
MICHIGAN CITY     62 65   70/  4/  6   N/A           2/ 6

$$
&&




USA.gov is the U.S. government's official web portal to all federal, state and local government web resources and services.